TimeCDT,TemperatureF,Dew PointF,Humidity,Sea Level PressureIn,VisibilityMPH,Wind Direction,Wind SpeedMPH,Gust SpeedMPH,PrecipitationIn,Events,Conditions,WindDirDegrees,DateUTC
12:53 AM,28.0,21.9,78,30.26,10.0,Calm,Calm,-,N/A,,Clear,0,2013-03-30 05:53:00
1:53 AM,28.9,23.0,78,30.25,10.0,WSW,3.5,-,N/A,,Clear,240,2013-03-30 06:53:00
2:53 AM,27.0,21.0,78,30.24,10.0,SW,3.5,-,N/A,,Clear,230,2013-03-30 07:53:00
3:53 AM,28.0,21.9,78,30.22,10.0,Calm,Calm,-,N/A,,Clear,0,2013-03-30 08:53:00
4:53 AM,30.0,23.0,75,30.21,10.0,SSW,3.5,-,N/A,,Clear,200,2013-03-30 09:53:00
5:53 AM,30.9,21.9,69,30.21,10.0,SSW,4.6,-,N/A,,Clear,210,2013-03-30 10:53:00
6:53 AM,30.0,21.9,72,30.19,10.0,SSW,3.5,-,N/A,,Clear,200,2013-03-30 11:53:00
7:53 AM,35.1,24.1,64,30.18,10.0,South,6.9,-,N/A,,Clear,190,2013-03-30 12:53:00
8:53 AM,39.0,26.1,60,30.16,10.0,SSE,6.9,-,N/A,,Clear,160,2013-03-30 13:53:00
9:53 AM,46.0,26.1,46,30.14,10.0,South,10.4,-,N/A,,Clear,170,2013-03-30 14:53:00
10:53 AM,48.9,28.0,44,30.11,10.0,South,12.7,-,N/A,,Clear,180,2013-03-30 15:53:00
11:53 AM,52.0,30.9,45,30.07,10.0,South,11.5,-,N/A,,Clear,190,2013-03-30 16:53:00
12:53 PM,52.0,30.9,45,30.04,10.0,South,10.4,-,N/A,,Partly Cloudy,170,2013-03-30 17:53:00
1:53 PM,55.0,34.0,45,30.00,10.0,SSE,11.5,-,N/A,,Clear,160,2013-03-30 18:53:00
2:53 PM,57.0,34.0,42,29.97,10.0,SSW,15.0,20.7,N/A,,Scattered Clouds,210,2013-03-30 19:53:00
3:53 PM,57.0,34.0,42,29.94,10.0,SSW,16.1,21.9,N/A,,Scattered Clouds,200,2013-03-30 20:53:00
4:53 PM,57.0,33.1,40,29.92,10.0,SW,13.8,-,N/A,,Overcast,220,2013-03-30 21:53:00
5:53 PM,54.0,36.0,51,29.92,10.0,WSW,11.5,-,N/A,,Overcast,240,2013-03-30 22:53:00
6:53 PM,53.1,36.0,52,29.91,10.0,SW,11.5,-,N/A,,Overcast,220,2013-03-30 23:53:00
7:53 PM,51.1,37.9,61,29.89,10.0,SW,6.9,-,0.00,,Overcast,220,2013-03-31 00:53:00
8:53 PM,51.1,37.9,61,29.88,10.0,SW,8.1,-,0.00,,Overcast,220,2013-03-31 01:53:00
9:53 PM,50.0,37.9,63,29.87,10.0,SW,8.1,-,0.00,,Overcast,220,2013-03-31 02:53:00
10:53 PM,48.0,37.9,68,29.86,9.0,SW,8.1,-,N/A,,Overcast,220,2013-03-31 03:53:00
11:53 PM,48.0,37.9,68,29.83,8.0,SW,9.2,-,N/A,,Overcast,230,2013-03-31 04:53:00